ECMWFNIL_prec_cthk_021.txt.gz
RH
25 26 26 25 21 17 16 16 15 14 14 14 14 17 21 23 22 22 21 21 21 21 21 23 26 29 31 33 34 35 36 37 37 37 38 38 38 39 41 42 44 44
27 28 27 27 25 21 17 16 17 17 15 14 15 19 26 26 24 23 22 22 22 21 21 22 26 29 32 32 32 33 35 36 36 36 37 38 38 39 40 41 41 43
29 31 30 29 28 25 21 18 18 18 16 14 16 22 27 27 25 24 22 22 22 22 23 24 27 30 32 32 32 32 32 34 35 36 37 38 40 41 41 41 41 43
30 33 33 33 31 28 26 21 17 16 14 14 17 21 23 24 25 23 21 21 21 22 24 26 31 34 34 35 36 34 33 33 35 37 39 40 41 41 41 41 42 45
30 33 37 39 34 30 29 24 17 15 16 17 19 21 22 24 26 24 23 22 22 24 25 27 32 36 36 38 39 38 37 37 37 39 39 40 40 41 42 42 42 45
30 34 42 45 38 32 31 24 17 16 18 19 21 22 24 27 27 26 26 27 27 27 27 27 30 34 35 37 40 41 41 41 41 40 40 41 44 45 44 44 45 48
30 36 45 47 41 36 31 23 18 19 20 21 22 24 26 27 27 27 28 29 30 30 30 29 30 33 35 37 40 42 43 44 43 41 40 45 51 52 50 51 54 53
33 40 47 49 46 39 29 22 21 22 22 22 24 25 26 26 27 27 27 30 31 31 31 32 33 35 36 38 41 43 44 44 44 41 41 44 49 51 51 53 57 56
38 47 53 54 49 37 27 23 23 24 24 24 25 26 25 25 27 28 28 31 32 31 31 34 36 37 38 39 41 42 42 41 41 40 41 42 44 48 50 53 57 58
44 55 59 54 45 34 25 24 25 26 26 25 25 26 26 27 29 31 32 33 32 31 32 34 37 38 38 39 39 40 39 38 40 42 42 42 43 44 47 50 52 51
51 60 57 47 39 30 25 25 28 28 27 26 26 27 27 29 31 33 34 34 33 33 34 35 38 38 38 37 37 38 38 37 42 46 45 43 43 43 42 44 44 42
59 63 54 42 35 28 24 26 28 27 25 25 25 25 26 30 32 33 34 34 35 35 35 37 38 38 38 37 37 38 38 40 45 48 45 42 42 42 40 40 40 40
62 61 53 41 32 26 23 24 23 22 21 21 23 24 27 30 31 32 33 33 34 35 35 37 37 37 38 39 39 40 40 42 44 45 43 42 42 43 41 40 41 43
57 52 45 36 28 24 24 23 21 19 19 21 23 25 28 29 30 31 32 33 33 33 34 35 36 37 39 40 41 42 44 44 44 43 43 43 45 45 44 43 44 45
53 45 39 31 26 25 24 22 20 19 20 22 24 25 27 28 29 30 33 34 35 34 34 36 37 40 41 42 43 46 46 45 43 43 44 46 48 47 46 45 45 46
50 41 35 28 26 25 24 22 21 20 22 24 25 27 28 28 29 31 33 36 37 36 36 37 39 41 43 43 44 46 46 45 44 45 46 49 50 49 48 46 46 48
47 39 32 27 26 25 24 24 22 21 24 27 28 30 32 33 31 30 35 39 39 38 38 40 43 44 43 43 44 46 46 45 46 46 48 50 51 50 49 47 46 48
43 36 30 27 25 25 25 26 26 26 28 29 30 32 35 37 36 34 36 40 40 40 41 42 44 45 44 44 45 46 46 45 47 48 48 51 52 52 50 48 46 47
39 32 28 27 25 25 27 28 30 32 32 33 34 35 37 40 40 39 39 41 41 41 41 43 44 46 45 44 44 44 44 44 47 48 49 52 55 54 52 50 48 47
35 30 27 26 24 25 27 29 31 32 34 34 35 36 38 40 41 43 43 43 43 43 42 44 46 46 45 43 43 45 44 43 44 47 49 53 56 57 55 53 51 49
31 27 26 25 25 26 26 28 29 30 31 33 33 35 39 41 41 43 45 45 45 44 43 45 45 45 45 43 43 45 45 43 43 47 51 55 58 58 56 54 52 51
28 27 26 26 27 27 27 28 29 29 31 32 34 37 41 42 42 43 45 47 47 46 44 43 44 46 47 45 44 46 46 42 43 49 53 58 61 60 56 55 53 52
29 28 28 28 29 32 33 33 33 33 34 36 39 40 42 44 45 45 47 49 50 48 45 43 44 47 50 49 48 50 48 43 43 50 56 60 61 59 56 54 53 53
30 29 30 31 32 35 36 37 37 37 38 41 43 45 46 47 49 50 49 50 52 51 48 48 49 49 49 50 53 55 53 48 45 49 56 59 58 57 55 52 51 53
30 30 31 32 35 37 39 41 41 40 43 47 49 51 52 52 54 54 51 51 54 54 53 55 56 54 53 54 57 60 57 52 49 50 54 57 56 55 54 50 50 52
31 32 33 34 35 38 40 43 47 52 57 63 64 63 63 62 61 60 57 57 57 57 59 60 58 59 60 59 58 60 59 54 52 53 55 56 55 54 53 51 51 52

ECMWFNIL_prec_cthk_024.txt.gz
RH
22 22 24 27 31 33 34 34 33 32 28 20 15 16 18 20 22 22 21 20 21 21 21 22 22 23 26 30 31 31 32 33 33 32 32 32 31 31 32 33 34 34
24 24 24 27 30 32 35 37 37 36 30 21 16 17 18 19 21 21 20 20 21 22 22 22 22 24 27 29 29 30 31 33 33 33 32 31 30 31 32 34 34 33
27 27 26 27 29 31 34 39 42 40 32 22 17 17 17 18 19 20 19 20 21 21 22 22 23 25 27 28 29 29 31 33 34 34 34 33 33 34 35 35 34 34
30 29 29 29 29 31 36 43 47 43 34 23 19 19 20 20 21 21 21 23 24 23 22 22 22 24 25 28 30 31 32 34 35 36 36 35 35 35 35 36 36 36
31 32 32 31 29 31 38 47 50 46 35 24 21 22 23 23 23 24 25 27 27 26 25 25 25 25 26 28 30 32 35 36 37 37 36 35 35 35 35 36 38 39
33 33 33 32 29 30 38 49 54 47 33 24 23 25 24 23 23 24 26 29 29 29 29 28 29 29 30 30 32 34 37 38 37 37 36 34 34 35 36 38 39 41
34 34 33 31 29 31 40 53 55 43 30 25 25 26 25 24 24 24 27 29 30 31 31 30 32 33 34 34 35 37 38 38 38 37 35 34 33 35 38 39 40 41
35 35 33 31 30 33 44 55 52 39 29 27 27 27 26 25 24 25 27 28 30 32 32 32 34 36 36 36 37 37 38 38 38 37 35 34 34 36 38 38 38 39
36 36 32 30 31 36 49 59 53 39 31 28 27 27 26 26 25 26 27 29 30 32 32 33 35 36 38 38 38 38 37 37 38 36 35 36 37 38 37 36 36 37
36 37 32 30 33 42 55 60 52 39 32 28 27 26 26 26 26 26 27 29 31 33 34 35 35 37 39 39 39 39 37 37 38 37 36 38 40 39 37 35 35 36
35 35 31 30 37 49 57 53 41 34 30 26 25 27 27 28 27 28 29 30 32 34 35 35 36 37 39 39 39 40 39 39 40 39 39 40 40 40 38 36 36 36
34 32 31 32 42 54 57 46 36 31 27 25 27 30 31 31 30 30 31 32 33 34 35 35 36 38 39 38 40 41 41 41 42 43 43 43 42 41 39 38 38 38
35 33 33 36 47 60 59 46 34 30 27 25 29 33 34 34 33 32 31 31 32 33 33 34 36 38 38 38 39 42 43 44 45 45 45 44 44 44 43 42 41 40
39 36 37 43 56 64 58 43 32 29 26 26 29 33 35 35 35 34 33 31 30 30 31 33 34 35 37 37 40 43 46 47 46 45 45 44 46 48 46 44 42 41
42 41 44 52 60 60 49 37 30 28 26 26 28 30 32 33 34 35 35 35 33 31 32 34 35 36 37 39 42 44 46 46 45 44 44 44 47 49 47 44 43 42
49 52 56 58 58 52 41 33 29 27 26 28 28 28 29 31 33 33 34 36 36 35 35 37 38 39 39 41 43 44 45 45 45 44 44 45 47 48 46 44 44 44
59 60 59 58 54 46 37 31 27 27 28 29 29 28 29 30 31 31 32 34 36 38 40 41 41 41 41 42 44 45 45 45 45 45 45 45 46 47 46 45 45 47
62 58 53 51 47 40 33 29 27 27 29 30 29 30 31 32 31 32 33 33 35 38 41 43 44 45 44 44 43 44 44 44 46 46 46 44 46 47 47 47 48 49
60 57 52 47 41 35 30 28 27 29 30 31 31 32 33 34 33 34 35 38 41 43 44 45 48 50 50 46 44 44 45 45 47 48 47 46 47 48 49 51 51 50
58 56 51 44 36 31 29 29 29 31 33 34 35 36 37 38 40 42 45 50 53 54 53 52 53 56 56 50 46 47 48 48 48 49 48 47 48 51 53 55 54 51
56 53 48 40 34 30 30 31 32 35 37 38 39 40 44 49 52 54 58 60 62 62 60 57 56 60 62 57 51 51 53 51 50 51 51 49 49 53 57 59 56 51
53 51 47 38 32 31 32 34 36 38 40 42 45 51 56 59 59 60 62 64 66 67 64 61 62 64 64 62 57 56 57 55 52 53 56 54 50 51 56 58 55 49
51 48 43 36 33 33 34 36 38 41 46 51 57 61 62 61 61 64 68 69 72 72 67 66 70 69 65 64 61 59 57 55 54 56 60 57 51 50 52 53 51 48
50 46 39 36 35 35 36 39 42 47 52 55 57 57 58 59 62 68 73 76 78 78 71 70 74 73 64 61 59 59 59 58 56 59 62 59 53 51 51 50 49 48
47 40 35 35 37 38 43 48 50 52 53 51 53 56 60 63 63 63 67 70 74 77 72 70 74 75 68 61 60 61 61 60 58 60 63 62 57 54 54 52 51 50
40 35 34 37 39 43 49 53 56 56 54 52 55 61 65 65 61 58 56 58 62 64 64 66 74 79 72 65 63 63 60 60 62 61 61 62 59 56 55 54 53 51

ECMWFNIL_prec_cthk_030.txt.gz
RH
40 42 41 38 38 36 33 32 31 31 30 31 32 34 36 39 39 34 29 29 27 23 20 20 20 20 21 21 21 23 25 26 26 27 28 29 31 32 33 34 35 35
40 41 40 38 37 36 35 34 33 33 33 32 32 33 35 38 39 36 32 30 26 22 20 20 20 21 20 21 21 22 24 25 26 27 28 31 32 33 34 36 36 36
39 37 37 38 36 35 35 35 35 37 37 35 34 34 35 38 41 38 32 29 27 23 20 20 20 20 19 20 21 22 24 25 26 28 29 31 32 34 35 37 37 36
37 34 34 36 36 35 34 35 36 38 39 38 37 35 35 38 42 39 31 28 30 26 21 20 19 18 19 20 22 23 25 26 27 29 31 32 33 34 36 37 37 37
32 31 33 35 35 35 35 35 36 38 38 39 39 37 36 37 42 42 33 31 32 27 22 21 20 21 23 25 26 27 28 29 29 30 31 33 34 36 37 38 37 37
33 30 31 34 35 36 37 36 37 38 39 39 40 38 36 36 42 45 40 35 34 28 24 24 23 25 27 27 29 29 31 32 32 31 32 33 35 38 39 39 39 39
42 35 32 36 40 41 41 39 39 40 40 40 41 39 36 36 41 45 43 41 38 31 26 26 27 27 28 29 30 31 32 33 33 33 32 33 35 38 40 41 41 40
44 39 39 43 46 46 45 44 42 41 41 42 41 39 37 37 41 46 46 45 43 34 28 27 28 29 29 30 30 31 32 33 34 34 35 35 36 38 41 43 43 42
42 39 42 47 48 47 48 48 45 42 41 42 41 39 37 35 41 48 48 47 43 35 29 28 29 29 31 31 31 31 32 34 37 40 41 42 41 42 43 44 44 43
44 40 41 45 47 48 50 50 46 42 39 39 38 37 35 35 43 49 48 46 40 31 28 28 29 31 33 34 34 34 35 38 42 43 44 45 46 45 44 44 44 43
47 41 38 41 46 48 49 49 45 40 38 35 35 34 33 38 46 49 47 44 35 28 26 28 29 33 37 39 40 41 42 43 43 43 44 45 47 46 44 42 43 43
49 45 39 42 48 49 48 48 43 38 35 33 33 34 35 41 48 48 46 40 31 25 26 29 31 34 38 40 43 46 46 45 43 44 47 48 48 47 44 42 41 43
54 53 46 46 52 52 49 48 44 39 37 35 35 35 38 45 50 49 43 35 28 26 29 31 34 35 35 37 41 44 43 42 42 45 49 50 50 49 46 42 40 43
66 65 57 54 56 53 51 49 43 41 42 41 39 38 43 51 53 48 39 30 28 29 33 36 37 37 37 39 40 41 40 38 41 44 47 49 51 50 47 42 40 44
77 73 65 59 55 54 56 52 45 45 47 46 45 47 51 54 49 42 36 30 30 33 37 40 40 40 42 43 43 43 43 42 42 43 45 47 50 51 49 43 41 45
80 76 70 64 57 57 61 56 50 50 49 50 54 56 54 50 44 38 34 31 33 37 40 42 41 42 45 46 46 46 47 48 49 48 48 48 48 49 50 46 43 46
76 72 70 68 63 61 62 57 54 54 53 55 60 59 52 47 43 38 34 35 38 41 42 43 44 45 47 48 47 46 46 49 51 53 54 53 49 47 50 51 48 49
70 69 70 72 67 63 61 60 59 58 56 57 59 56 50 47 45 40 38 40 42 42 43 45 46 48 48 49 48 47 47 48 50 52 54 55 52 48 49 53 53 52
69 68 69 71 69 66 66 65 62 59 58 58 55 50 48 47 44 41 42 44 45 45 46 47 48 50 50 51 49 49 50 50 51 52 52 52 52 49 48 52 55 55
66 66 64 66 66 66 68 69 63 59 62 62 55 49 49 48 44 43 46 48 48 49 49 49 50 52 53 53 52 52 53 53 54 53 52 51 49 47 48 52 54 55
66 65 64 63 61 62 66 70 66 62 66 65 57 51 51 48 45 47 50 51 52 53 52 51 52 55 56 55 54 54 55 55 54 53 51 50 47 45 47 52 55 54
66 66 65 62 59 61 66 70 69 68 70 67 59 53 50 47 47 50 54 56 57 56 55 54 55 57 58 57 55 56 56 54 51 48 47 48 47 44 47 55 57 53
63 63 66 65 66 69 72 73 74 75 73 67 60 52 47 46 48 52 58 61 61 61 62 62 60 60 60 58 57 56 55 53 49 46 45 47 47 45 49 59 63 60
63 61 60 65 70 74 76 77 77 75 72 65 58 52 46 47 50 55 60 62 63 65 67 65 63 62 61 59 57 53 50 49 48 46 46 47 48 48 53 63 72 74
62 57 56 62 64 66 73 79 78 74 70 63 57 52 48 49 53 56 57 59 59 62 62 61 62 63 62 60 56 50 45 43 43 47 49 48 49 53 60 71 79 82
59 55 58 61 59 61 70 78 78 75 69 62 57 55 53 53 54 54 54 57 58 59 59 60 60 60 59 55 49 44 41 42 47 55 57 54 50 51 58 70 78 82

ECMWFNIL_prec_cthk_033.txt.gz
RH
33 33 34 37 39 41 42 42 40 36 33 32 32 31 30 29 29 31 34 36 31 25 23 24 26 26 22 20 20 21 22 24 25 25 25 26 27 29 31 32 32 34
34 34 35 37 40 40 39 38 38 37 36 35 34 33 32 31 31 31 33 36 35 29 26 28 29 27 23 20 20 21 22 23 24 25 26 26 27 29 30 32 34 35
35 35 36 38 40 39 37 36 36 36 36 35 35 35 35 34 33 32 32 34 36 33 30 32 33 27 22 21 21 22 22 23 25 26 27 28 28 29 31 34 37 38
35 36 38 41 42 41 39 37 35 36 36 35 35 35 34 34 35 34 32 32 35 34 31 35 36 30 23 21 20 21 22 23 24 26 28 28 29 32 34 36 38 39
35 36 39 41 43 45 46 42 39 39 40 40 40 38 36 35 35 35 32 31 34 34 32 36 40 35 27 22 20 22 24 25 26 27 28 29 31 34 35 36 37 37
35 37 39 40 41 44 45 43 43 45 47 47 46 44 41 37 35 35 34 32 34 35 32 36 42 38 29 25 25 26 28 29 30 30 30 32 34 35 35 37 39 40
39 41 42 43 42 43 44 42 43 46 48 49 49 49 48 43 37 35 34 33 35 35 34 37 41 37 30 27 27 28 30 32 33 33 34 37 39 38 37 39 42 44
44 43 43 45 48 53 53 47 44 45 47 50 53 54 53 49 40 35 35 35 35 37 36 37 40 38 32 27 28 32 34 35 36 37 38 40 41 41 39 40 42 44
53 50 51 54 57 58 54 48 48 48 47 51 55 58 58 52 42 36 36 36 36 38 38 38 42 40 32 28 31 35 37 38 38 38 39 41 42 42 41 40 40 41
66 65 65 63 59 53 48 48 51 50 47 48 52 57 59 53 44 39 38 39 40 39 37 40 44 39 29 27 32 37 38 38 38 37 38 40 42 43 44 43 41 41
75 72 68 63 58 55 51 51 53 52 50 50 51 55 55 51 47 43 42 42 42 39 39 46 46 36 28 29 34 38 39 38 38 37 38 41 43 45 45 46 46 43
70 67 66 65 64 61 55 53 55 56 55 52 52 54 52 50 48 46 46 46 43 44 50 53 45 35 32 36 40 42 42 42 40 39 40 42 45 47 48 50 50 47
57 57 61 64 68 66 58 55 56 55 54 53 54 55 53 50 50 48 48 48 47 51 55 51 42 38 39 42 45 47 47 47 45 44 43 44 45 47 50 53 55 53
55 59 61 64 69 66 58 57 58 56 56 56 56 57 55 54 53 52 50 52 54 53 51 45 42 43 44 45 47 50 50 49 48 46 45 45 45 47 49 51 53 54
57 64 67 69 74 70 61 61 62 60 60 59 58 60 60 58 57 55 55 58 57 51 47 45 45 45 45 47 49 51 52 51 50 49 48 48 48 49 48 48 49 50
58 68 75 78 78 71 63 61 60 59 59 58 58 62 63 63 62 59 58 59 55 49 46 46 46 47 48 49 50 52 53 52 50 49 50 51 52 51 49 48 48 48
60 66 71 72 69 61 54 53 55 58 58 53 53 58 62 64 65 62 59 58 53 48 47 48 48 49 49 49 51 53 53 52 51 51 52 54 54 53 50 49 49 48
59 62 63 64 62 57 51 49 51 55 56 52 50 55 60 63 65 64 63 59 51 48 50 50 49 51 51 52 53 54 55 55 54 55 55 55 55 53 51 50 50 49
55 57 59 60 60 58 54 52 52 54 54 53 53 57 60 63 65 65 63 57 50 50 52 52 52 53 54 54 55 57 59 60 61 61 60 58 55 53 52 51 52 51
52 56 60 61 61 61 57 53 53 54 55 54 54 56 61 65 66 64 60 54 51 52 53 52 53 54 54 55 57 60 63 65 66 65 62 59 57 54 52 53 55 53
55 60 62 62 64 65 60 55 52 51 53 55 53 53 60 67 67 64 60 56 52 51 51 51 52 54 54 56 60 64 67 69 69 68 65 61 57 54 53 55 57 56
59 61 62 64 64 63 60 58 53 48 50 55 53 52 59 67 67 65 62 57 52 50 49 50 52 53 56 60 64 67 69 70 71 70 67 62 58 57 58 57 56 58
58 61 64 63 62 60 59 60 56 49 50 56 55 53 60 68 70 68 64 57 53 51 52 52 53 55 59 64 66 67 68 70 70 69 67 63 61 63 64 61 60 63
55 60 61 57 56 60 62 64 60 51 52 59 57 55 63 71 73 70 64 58 54 53 55 56 56 58 61 63 64 63 63 65 66 65 63 61 60 63 65 61 60 61
52 57 58 55 56 60 61 62 57 50 54 62 60 59 67 72 71 69 63 59 57 57 60 61 60 60 61 61 60 58 58 59 60 60 57 56 59 62 60 55 53 50
54 57 57 56 58 59 58 58 54 50 55 62 61 65 72 72 70 68 62 59 63 64 63 62 60 59 60 61 61 60 60 61 61 59 56 54 53 51 47 44 43 42

ECMWFNIL_prec_cthk_036.txt.gz
RH
35 36 37 38 39 40 42 44 45 47 50 50 47 44 41 40 40 39 37 34 30 27 27 29 33 37 36 36 34 28 24 23 23 24 25 26 27 26 26 26 29 33
37 38 39 40 39 39 41 43 45 47 48 47 45 44 43 42 42 40 37 35 33 31 29 29 32 34 32 35 37 31 25 23 23 24 25 25 26 26 26 27 32 37
38 40 40 40 39 39 40 42 45 49 51 50 48 47 46 45 45 44 40 37 35 33 33 30 29 30 28 32 38 37 30 24 24 27 26 24 25 25 26 30 37 41
37 39 39 39 39 39 40 41 43 47 50 52 49 47 48 50 51 49 46 43 39 35 34 31 29 29 28 29 36 39 35 26 23 25 25 24 26 27 30 34 39 42
35 37 38 39 39 39 40 41 42 44 45 45 43 42 45 48 50 51 49 48 45 40 36 33 31 30 28 28 33 38 36 30 26 24 24 28 31 32 34 37 39 41
35 36 37 38 38 38 38 41 43 44 43 41 40 40 42 44 47 51 53 53 51 45 39 36 34 33 30 29 33 38 38 36 33 30 30 33 35 34 34 34 35 37
36 35 36 37 38 39 42 46 48 48 46 44 43 44 44 46 49 51 53 56 56 52 45 40 38 36 34 31 34 39 40 36 33 33 33 34 35 34 34 33 34 34
38 39 41 43 44 47 50 52 53 53 49 46 46 47 47 50 51 51 51 54 58 57 51 45 42 40 37 35 36 40 41 38 34 34 36 36 36 35 35 37 38 37
44 48 52 53 53 54 53 51 51 51 48 47 49 50 50 52 54 54 52 53 57 58 54 50 49 47 42 41 41 40 40 40 39 38 39 40 40 39 41 43 44 45
53 55 56 56 56 56 54 50 51 52 49 48 50 51 52 54 55 55 55 56 58 58 55 53 53 51 49 49 47 43 43 44 43 41 41 43 44 46 47 48 48 49
57 57 58 59 57 55 56 56 58 58 54 50 50 50 52 54 56 57 58 58 59 59 56 56 55 53 54 55 50 46 47 50 49 48 47 47 49 49 48 48 50 50
56 58 59 60 56 54 56 58 60 59 55 51 50 48 49 53 56 56 58 59 61 61 60 59 59 56 56 56 51 48 50 54 55 54 52 52 53 52 51 50 50 48
57 58 55 52 50 51 53 55 57 59 56 53 52 49 47 50 53 53 55 59 61 62 63 63 62 60 59 57 51 50 53 56 57 57 55 56 56 55 55 54 53 51
58 56 51 47 45 46 48 50 53 57 57 55 52 49 46 47 49 50 52 56 57 58 61 63 63 64 64 59 53 52 54 57 59 59 57 58 59 57 56 55 55 55
56 52 51 51 47 45 45 48 51 56 58 55 50 47 45 44 47 50 51 55 57 57 58 61 65 66 64 60 56 56 58 60 61 60 57 59 61 61 59 57 56 56
52 50 52 54 50 45 45 47 51 55 57 53 46 44 45 45 48 52 52 54 58 59 58 61 64 64 60 59 60 62 63 63 62 61 59 61 64 64 63 61 61 60
50 49 51 52 51 49 47 47 49 54 56 52 46 43 45 48 51 54 54 53 55 59 60 62 64 61 59 62 65 66 65 64 64 64 63 63 65 65 64 65 65 65
48 49 49 50 52 52 51 49 49 52 53 53 50 48 47 49 51 56 58 54 51 57 63 65 65 63 61 63 67 67 65 62 62 64 65 66 67 68 68 68 68 68
45 48 48 49 51 52 53 52 48 46 48 53 55 53 52 51 50 56 63 57 52 56 64 67 67 64 61 61 62 62 60 58 58 61 65 68 71 72 70 69 70 71
44 46 46 47 49 51 53 52 48 46 48 53 54 53 55 56 53 57 64 61 54 56 63 67 66 61 58 57 57 57 55 55 58 61 64 68 71 71 69 68 70 71
45 47 49 50 52 54 56 56 53 51 53 56 54 53 58 61 58 60 65 62 55 55 62 67 63 58 57 57 55 53 53 54 57 61 65 69 70 68 66 67 68 67
46 49 53 56 58 59 58 58 57 56 57 59 57 57 61 61 59 61 64 60 55 55 63 67 61 57 59 59 55 53 53 55 59 63 66 67 66 65 64 63 64 64
46 49 53 57 60 59 59 61 62 60 58 57 56 57 61 61 60 63 64 57 52 58 66 68 63 60 60 60 58 58 58 59 62 64 62 60 59 61 61 61 62 61
48 50 53 56 58 59 61 63 63 62 59 57 55 55 58 60 60 62 60 51 50 62 69 69 67 67 65 62 60 61 63 65 64 62 58 55 56 58 60 62 63 59
53 54 56 58 59 61 63 65 65 64 61 58 55 50 51 57 61 62 57 50 54 67 72 69 70 73 71 67 63 64 68 69 65 61 59 59 60 62 64 64 62 57
56 58 59 60 62 64 66 66 66 63 61 58 55 51 51 55 62 66 63 56 61 72 76 74 74 75 72 68 66 67 70 69 65 64 64 63 64 66 65 62 56 51